STARLINK-5694, 55481

Orbit data source: Space-Track

STARLINK-5694, 55481 is a payload satellite owned by SpaceX/Seattle (US) in LEO that was launched on Thu, 02 Feb 2023 UTC via an FALCON 9 launch vehicle from the Air Force Eastern Test Range (AFETR). Payload-class satellites include a variety of spacecraft equipped with specific instruments for various scientific and technological missions. These include communications satellites like Starlink; space stations such as the ISS; scientific satellites like the Hubble; Earth observation satellites from companies like Planet Labs, Umbra, and HawkEye 360; GPS; miniature CubeSats for education and research; and military/defense satellites.

Loading next visibility...
Identifier
55481, 2023-015AJ
Orbit
LEO
Country
Flag of USUS
Related business
Manufacturer
SpaceX/Seattle
Mission
Operational Commercial Communications
Bus & Motor
STARLINK, Unknown motor
Mass
305 kg wet, ~290 kg dry
Launch date (UTC)
2023-02-02 (3 years ago)
Launch vehicle
FALCON 9
Launch site
Air Force Eastern Test Range (AFETR)
Object type
Payload
Rocket body
Debris
Shape & HBR
Box + 1 Pan, 10.1 m
Radar Cross Section
13.562 m², Large (>1 m²)

Expand to show TLE details & history
Last TLE update: 22 hours ago

TLE from 22 hours ago
0 STARLINK-5694
1 55481U 23015AJ  25352.46366633 -.00000365  00000-0 -11913-4 0  9993
2 55481  43.0038  60.5015 0001315 270.7375  89.3317 15.02532136158385
Epoch: 2025-12-18T11:07Z
TLE epoch observation values (Epoch: 2025-12-18T11:07:40.770Z)
Latitude
-0.00002°
Longitude
166.2628°
Altitude
558.859 km
Speed
7.584 km/s
True Right ascension
04h 02m 00s
True Declination
0° 00' 00"
Sunlit
Object was in full shadow at epoch
Visualization orbit readout
Latitude
Unknown
Longitude
Unknown
Altitude
Unknown
Speed
Unknown
Apparent Right ascension
Unknown
Apparent Declination
Unknown
Sunlit
N/A
Visualization observer readout
Local Sidereal Time
07:49:23
Azimuth
Unknown
Elevation
Unknown
Doppler factor
Unknown
Orbital elements
Apogee altitude
561.927 km
Perigee altitude
560.102 km
Semi-major axis
6,939.152 km
Eccentricity
0.00013
Inclination
43.0038°
RAAN
60.5015°
Arg. of periapsis
270.7375°
True anomaly
89.34677°
Mean anomaly
89.3317°
Eccentric anomaly
89.33923°
Mean motion
3.75477 °/min
Orbital period
95.88 mins
BSTAR
-0.000011913
Loading maneuver chart data...
Computing Atmospheric mass density...
Loading historical data...
Loading historical data...
Loading historical data...
Loading historical data...
Loading historical data...
Loading historical data...
Loading historical data...

Documentation

Showing up to 5 results
|